Location: Ajisawe
(8.4333°N, 4.3833°E)
Time: 23:30:31
(UTC+00:00)

A-11 Canister half - Pass Details

Date: 25 April 2021
Orbit: 1514 x 1685 km, 47.2° (Epoch: 15 May)

Event Time Altitude Azimuth Distance (km) Brightness Sun altitude
Rises 00:56:38 0° 346° (NNW) 4,813 11.8 -61.3°
Reaches altitude 10° 01:02:43 10° 14° (NNE) 3,870 11.4 -60.2°
Maximum altitude 01:06:20 12° 36° (NE) 3,707 11.3 -59.6°
Drops below altitude 10° 01:09:57 10° 58° (ENE) 3,911 11.4 -59.0°
Sets 01:16:07 0° 86° (E) 4,924 12.0 -57.9°
